Regional Weather Roundup
Issued by NWS

Home | Current Version | Previous Version | Text Only | Print | Product List | Glossary Off
Versions: 1 2 3 4 5 6 7 8 9 10 11 12 13 14 15 16 17 18 19 20 21 22 23 24 25 26 27 28 29 30 31 32 33 34 35 36 37 38 39 40 41 42 43 44 45 46 47 48 49 50

000
ASUS43 KMPX 301410
RWRMN
WEATHER ROUNDUP FOR MINNESOTA
NATIONAL WEATHER SERVICE TWIN CITIES/CHANHASSEN MN
800 AM CST FRI JAN 30 2015


NOTE: "FAIR" INDICATES FEW OR NO CLOUDS BELOW 12,000 FEET WITH NO
SIGNIFICANT WEATHER AND/OR OBSTRUCTIONS TO VISIBILITY. N/A MEANS
CURRENT SKY AND/OR WEATHER CONDITIONS ARE NOT AVAILABLE.

MNZ060>063-068>070-301500-
   Twin Cities Metro

CITY           SKY/WX    TMP DP  RH WIND       PRES   REMARKS
TWIN CITIES    MOCLDY    12   4  70 SE3       30.53R
ST PAUL        FAIR      11   4  73 E5        30.55R WCI   3
CRYSTAL        FAIR      12   4  70 CALM      30.52R
BLAINE         MOCLDY    10   7  85 E3        30.53R
LAKEVILLE      CLEAR     10   5  79 CALM      30.52R
EDEN PRAIRIE   PTCLDY    13   7  77 CALM      30.52R
SOUTH ST PAUL  PTCLDY    12   4  73 CALM      30.53R
LAKE ELMO      FAIR      10   5  79 CALM      30.53R
$$
MNZ001>005-007-008-013>017-022>024-027-028-301500-
   Northwest Minnesota

CITY           SKY/WX    TMP DP  RH WIND       PRES   REMARKS
BEMIDJI        CLOUDY     4   0  84 S6        30.39F WCI  -7
HALLOCK        CLOUDY     9   3  78 S16       30.32F WCI  -9
ROSEAU         CLOUDY     3  -2  78 S9        30.35F WCI -11
WARROAD        PTCLDY     1  -4  78 SE6       30.36F WCI -10
THIEF RVR FALL CLOUDY     7   3  85 SE9       30.36F WCI  -7
CROOKSTON      CLOUDY    10   5  79 S12       30.39F WCI  -4
FOSSTON        CLOUDY     3   0  85 S10       30.38F WCI -12
DETROIT LAKES  MOCLDY     9   5  85 S9        30.39F WCI  -5
MOORHEAD       CLOUDY    12   9  85 SE10      30.42F WCI  -1
PARK RAPIDS    CLOUDY     6   2  83 S6        30.39F WCI  -4
MAHNOMEN       PTSUNNY    8   3  81 S5        30.38F WCI  -1
$$
MNZ006-009>011-018-025>026-301500-
   North Central Minnesota

CITY           SKY/WX    TMP DP  RH WIND       PRES   REMARKS
BAUDETTE       CLOUDY    -1  -6  79 S5        30.38F WCI -11
FLAG ISLAND    CLOUDY     1  -4  78 S15       30.35F WCI -18
INTL FALLS     MOCLDY    -7 -11  83 CALM      30.41F
WASKISH        CLOUDY     1  -2  85 CALM      30.39F
BIG FORK       PTCLDY     0  -6  78 CALM      30.40F
LONGVILLE      CLOUDY     3   0  85 SE5       30.42F WCI  -6
GRAND RAPIDS   CLOUDY     1   0  92 S3        30.41F
CRANE LAKE     MOCLDY    -8  -9  92 CALM      30.45F
ORR            CLOUDY    -8 -11  84 CALM      30.38F
COOK           MOCLDY    -6  -9  84 CALM      30.42F
WALKER         CLOUDY     4   0  83 S3        30.40F
$$
MNZ012-019>021-037-301500-
   Northeast Minnesota

CITY           SKY/WX    TMP DP  RH WIND       PRES   REMARKS
DULUTH         MOCLDY     0  -5  79 W3        30.42F
ELY            PTCLDY    -4  -8  84 SW5       30.42S WCI -15
HIBBING        CLOUDY    -3  -9  75 CALM      30.43F
EVELETH        PTCLDY    -2  -6  84 CALM      30.44S
DULUTH HARBOR  MOCLDY     3   0  85 CALM      30.53F
TWO HARBORS    PTCLDY     0  -6  78 CALM      30.44S
SILVER BAY     PTCLDY     0  -6  78 CALM      30.44R
GRAND MARAIS     N/A     -2  -7  79 CALM      30.50R
G MARAIS ARPRT CLOUDY    -2  -9  71 W3        30.35S
$$
MNZ029>031-032-039>041-046>048-054>057-064-301500-
   West Central Minnesota

CITY           SKY/WX    TMP DP  RH WIND       PRES   REMARKS
FERGUS FALLS   PTCLDY     9   3  78 S7        30.47F WCI  -3
WHEATON        CLOUDY    12   9  85 SE12      30.45F WCI  -2
MORRIS         CLOUDY    12   7  79 SE7       30.44F WCI   2
ALEXANDRIA     MOCLDY     9   4  80 CALM      30.44F
ELBOW LAKE     FAIR       9   5  83 SE8       30.43F WCI  -3
WADENA         MOCLDY     7   3  85 S5        30.43S WCI  -2
GLENWOOD       PTCLDY     9   7  92 S7        30.45S WCI  -3
APPLETON       CLOUDY    16   9  73 SE8       30.46F WCI   5
BENSON         CLOUDY    12   7  79 S5        30.46F WCI   4
ORTONVILLE     CLOUDY    16  10  79 SE8       30.43F WCI   5
MADISON        CLOUDY    21  18  86 SE7       30.45F WCI  13
WILLMAR        FAIR      12   7  79 S3        30.48F
$$
MNZ033>034-036-042>043-049>051-058-059-301500-
   Central Minnesota

CITY           SKY/WX    TMP DP  RH WIND       PRES   REMARKS
ST CLOUD       CLOUDY    10   4  76 S5        30.49S WCI   2
SAUK CENTRE    FAIR       9   5  84 S6        30.46F WCI  -1
PAYNESVILLE    PTCLDY     8   5  87 SE3       30.48S
AITKIN         CLOUDY     9   3  78 CALM      30.45S
PINE RIVER     MOCLDY     5   1  85 S5        30.45F WCI  -4
BRAINERD       CLOUDY     6   2  83 S3        30.46F
STAPLES        MOCLDY     7   3  85 S5        30.44S WCI  -2
LONG PRAIRIE   FAIR       9   5  85 S6        30.45S WCI  -1
LITTLE FALLS   PTCLDY    10   5  79 S5        30.47F WCI   2
LITCHFIELD     PTCLDY    12  10  92 CALM      30.49F
BUFFALO        PTCLDY    12   7  80 SE3       30.51F
MAPLE LAKE     FLURRIES  13  10  87 CALM      30.51S
$$
MNZ037-044-045-052-053-301500-
   East Central Minnesota

CITY           SKY/WX    TMP DP  RH WIND       PRES   REMARKS
PRINCETON      MOCLDY    10   7  85 CALM      30.49F
MORA           PTCLDY     7   1  78 CALM      30.51F
CAMBRIDGE      MOCLDY     9   0  66 CALM      30.50S
RUSH CITY      CLOUDY     7   1  76 CALM      30.52S
MOOSE LAKE     CLOUDY     5   0  78 CALM      30.46F
HINCKLEY       FAIR       7   1  78 CALM      30.50S
CLOQUET        CLOUDY     1  -2  85 CALM      30.44F
MCGREGOR       CLOUDY     7   3  85 S5        30.46S WCI  -2
$$
MNZ071>073-080-081-089-090-097-098-301500-
   Southwest Minnesota

CITY           SKY/WX    TMP DP  RH WIND       PRES   REMARKS
MONTEVIDEO     MOCLDY    12  10  92 S7        30.47F WCI   2
GRANITE FALLS  CLOUDY    14   9  82 E3        30.50S
CANBY          CLOUDY    20  17  87 SW5       30.45F WCI  14
MARSHALL       CLOUDY    18  12  79 SW10      30.47S WCI   6
REDWOOD FALLS  CLEAR     11   7  84 CALM      30.50S
OLIVIA         PTCLDY    10   9  92 CALM      30.48F
PIPESTONE      CLOUDY    19  18  93 SW12      30.42F WCI   7
WINDOM         PTCLDY    12  10  92 CALM      30.47S
WORTHINGTON    CLOUDY    16  14  93 S6        30.47S WCI   7
JACKSON        CLEAR     12   9  85 S5        30.47F WCI   4
TRACY          CLOUDY    19  16  89 SW12      30.46S WCI   6
SLAYTON        CLOUDY    17  15  92 CALM      30.45S
$$
MNZ065>067-074>077-082>085-091>093-301500-
   South Central Minnesota

CITY           SKY/WX    TMP DP  RH WIND       PRES   REMARKS
MANKATO        CLEAR     10   5  79 SW5       30.50F WCI   2
NEW ULM        CLEAR     10   7  85 CALM      30.50F
ST JAMES       CLEAR     12   9  85 CALM      30.51F
FAIRMONT       CLEAR     12   7  79 S5        30.48F WCI   4
GLENCOE        PTCLDY    14  10  87 S3        30.51R
FARIBAULT      PTCLDY    10   9  92 CALM      30.51R
OWATONNA       CLEAR     12   9  85 CALM      30.49S
WASECA         CLEAR     12  10  92 SW5       30.51F WCI   4
ALBERT LEA     CLEAR     10   9  92 CALM      30.50R
$$
MNZ078>079-086>088-094>096-301500-
   Southeast Minnesota

CITY           SKY/WX    TMP DP  RH WIND       PRES   REMARKS
ROCHESTER      PTCLDY     6   2  83 S3        30.48F
RED WING       PTCLDY     9   3  78 CALM      30.53R
STANTON        CLEAR     12   5  73 CALM      30.51R
DODGE CENTER   PTCLDY     9   7  92 S3        30.47S
WINONA         PTCLDY    12   7  79 CALM      30.54F
AUSTIN         CLEAR     10   7  85 CALM      30.50R
PRESTON        PTCLDY     8   4  84 CALM      30.50S
$$
ABBREVIATIONS USED IN REMARKS
   TC - TEMPERATURES IN CELSIUS
  WCI - WIND CHILL INDEX
   HX - HEAT INDEX
  VSB - VISIBILITY
$$



USA.gov is the U.S. government's official web portal to all federal, state and local government web resources and services.